User: anonymous   Login
Location: Unspecified
(0.0000°N, 0.0000°E)
Time: 12:50:34
(UTC+00:00)
Language:

MERIDIAN 1 - Orbit

View from above orbital plane
View from above orbital plane
View from above satellite
View from above satellite

Ground track
Ground track

The orbit data is extracted from the following two-line orbital elements,

1 29668U 06061A   17261.99383244 +.00000091 +00000-0 +00000-0 0  9993
2 29668 064.8076 082.3752 7231684 238.6119 347.8150 02.00604733078662
Epoch (UTC): 18 September 2017 23:51:07
Eccentricity: 0.7231684
inclination: 64.8076°
perigee height: 973 km
apogee height: 39383 km
right ascension of ascending node: 82.3752°
argument of perigee: 238.6119°
revolutions per day: 2.00604733
mean anomaly at epoch: 347.8150°
orbit number at epoch: 7866

The dashed part of the orbit path shows where the satellite is in the earth's shadow,  

DLR